source: josm/trunk/data_nodist/2094047.gpx @ 13288

Last change on this file since 13288 was 13256, checked in by Don-vip, 2 years ago

fix #15701 - CorrelateGpxWithImages: Test newGpsData, speed, elevation, gpsTime set by matchGpxTrack() (patch by holgermappt)

File size: 57.7 KB
Line 
1<?xml version="1.0" encoding="UTF-8" standalone="no" ?>
2<gpx xmlns="http://www.topografix.com/GPX/1/1" creator="MapSource 6.16.3" version="1.1" xmlns:xsi="http://www.w3.org/2001/XMLSchema-instance" xsi:schemaLocation="http://www.topografix.com/GPX/1/1 http://www.topografix.com/GPX/1/1/gpx.xsd">
3
4  <metadata>
5    <link href="http://www.garmin.com">
6      <text>Garmin International</text>
7    </link>
8    <time>2016-01-09T19:37:38Z</time>
9    <bounds maxlat="47.201499743387103" maxlon="8.798418799415231" minlat="47.18490038998425" minlon="8.77192972227931"/>
10  </metadata>
11
12  <wpt lat="47.192017380148172" lon="8.795854020863771">
13    <ele>480</ele>
14    <time>2016-01-09T19:29:38Z</time>
15    <name>Schranke</name>
16    <cmt>Pfad</cmt>
17    <desc>Pfad</desc>
18    <sym>Toll Booth</sym>
19    <extensions>
20      <gpxx:WaypointExtension xmlns:gpxx="http://www.garmin.com/xmlschemas/GpxExtensions/v3">
21        <gpxx:DisplayMode>SymbolAndName</gpxx:DisplayMode>
22      </gpxx:WaypointExtension>
23    </extensions>
24  </wpt>
25
26  <trk>
27    <name>2016-01-03 20:40:14</name>
28    <extensions>
29      <gpxx:TrackExtension xmlns:gpxx="http://www.garmin.com/xmlschemas/GpxExtensions/v3">
30        <gpxx:DisplayColor>Black</gpxx:DisplayColor>
31      </gpxx:TrackExtension>
32    </extensions>
33    <trkseg>
34      <trkpt lat="47.19286847859621" lon="8.79732714034617">
35        <ele>471.86000000000001</ele>
36        <speed>12.399</speed>
37        <time>2016-01-03T11:59:58Z</time>
38      </trkpt>
39      <trkpt lat="47.192921955138445" lon="8.797342479228973">
40        <ele>471.43000000000001</ele>
41        <time>2016-01-03T11:59:59Z</time>
42      </trkpt>
43      <trkpt lat="47.192975012585521" lon="8.797344239428639">
44        <ele>470.69</ele>
45        <time>2016-01-03T12:00:00Z</time>
46      </trkpt>
47      <trkpt lat="47.193027399480343" lon="8.797332588583231">
48        <ele>470.94</ele>
49        <time>2016-01-03T12:00:01Z</time>
50      </trkpt>
51      <trkpt lat="47.193073416128755" lon="8.797307442873716">
52        <ele>471.5</ele>
53        <time>2016-01-03T12:00:02Z</time>
54      </trkpt>
55      <trkpt lat="47.193113481625915" lon="8.797272993251681">
56        <ele>471.67000000000002</ele>
57        <time>2016-01-03T12:00:03Z</time>
58      </trkpt>
59      <trkpt lat="47.193135609850287" lon="8.797232424840331">
60        <ele>471.58999999999997</ele>
61        <time>2016-01-03T12:00:04Z</time>
62      </trkpt>
63      <trkpt lat="47.193336607888341" lon="8.796738646924496">
64        <ele>472.44999999999999</ele>
65        <time>2016-01-03T12:00:15Z</time>
66      </trkpt>
67      <trkpt lat="47.193504832684994" lon="8.796404711902142">
68        <ele>472.54000000000002</ele>
69        <time>2016-01-03T12:00:22Z</time>
70      </trkpt>
71      <trkpt lat="47.19353936612606" lon="8.79635970108211">
72        <ele>472.45999999999998</ele>
73        <time>2016-01-03T12:00:23Z</time>
74      </trkpt>
75      <trkpt lat="47.193818986415863" lon="8.796017384156585">
76        <ele>471.38</ele>
77        <time>2016-01-03T12:00:30Z</time>
78      </trkpt>
79      <trkpt lat="47.193866763263941" lon="8.795985281467438">
80        <ele>471.26999999999998</ele>
81        <time>2016-01-03T12:00:31Z</time>
82      </trkpt>
83      <trkpt lat="47.193917976692319" lon="8.795968098565936">
84        <ele>471.36000000000001</ele>
85        <time>2016-01-03T12:00:32Z</time>
86      </trkpt>
87      <trkpt lat="47.194744180887938" lon="8.795836586505175">
88        <ele>473.19999999999999</ele>
89        <time>2016-01-03T12:00:50Z</time>
90      </trkpt>
91      <trkpt lat="47.195586981251836" lon="8.795750420540571">
92        <ele>475.06</ele>
93        <time>2016-01-03T12:01:09Z</time>
94      </trkpt>
95      <trkpt lat="47.19563358463347" lon="8.795769028365612">
96        <ele>474.75</ele>
97        <time>2016-01-03T12:01:10Z</time>
98      </trkpt>
99      <trkpt lat="47.195677170529962" lon="8.795795682817698">
100        <ele>474.62</ele>
101        <time>2016-01-03T12:01:11Z</time>
102      </trkpt>
103      <trkpt lat="47.195715978741646" lon="8.795830467715859">
104        <ele>474.74000000000001</ele>
105        <time>2016-01-03T12:01:12Z</time>
106      </trkpt>
107      <trkpt lat="47.195750931277871" lon="8.795875981450081">
108        <ele>474.06</ele>
109        <time>2016-01-03T12:01:13Z</time>
110      </trkpt>
111      <trkpt lat="47.195781692862511" lon="8.795927111059427">
112        <ele>474</ele>
113        <time>2016-01-03T12:01:14Z</time>
114      </trkpt>
115      <trkpt lat="47.195808347314596" lon="8.795980839058757">
116        <ele>474.58999999999997</ele>
117        <time>2016-01-03T12:01:15Z</time>
118      </trkpt>
119      <trkpt lat="47.195833241567016" lon="8.796036075800657">
120        <ele>474.81999999999999</ele>
121        <time>2016-01-03T12:01:16Z</time>
122      </trkpt>
123      <trkpt lat="47.196286031976342" lon="8.797110635787249">
124        <ele>476.29000000000002</ele>
125        <time>2016-01-03T12:01:35Z</time>
126      </trkpt>
127      <trkpt lat="47.196589959785342" lon="8.797826115041971">
128        <ele>478.48000000000002</ele>
129        <time>2016-01-03T12:01:50Z</time>
130      </trkpt>
131      <trkpt lat="47.197033865377307" lon="8.798356018960476">
132        <ele>481.02999999999997</ele>
133        <time>2016-01-03T12:02:06Z</time>
134      </trkpt>
135      <trkpt lat="47.197236875072122" lon="8.798418799415231">
136        <ele>480</ele>
137        <time>2016-01-03T12:02:12Z</time>
138      </trkpt>
139      <trkpt lat="47.197278868407011" lon="8.79838845692575">
140        <ele>479.58999999999997</ele>
141        <time>2016-01-03T12:02:13Z</time>
142      </trkpt>
143      <trkpt lat="47.197315413504839" lon="8.798339758068323">
144        <ele>478.99000000000001</ele>
145        <time>2016-01-03T12:02:14Z</time>
146      </trkpt>
147      <trkpt lat="47.197333350777626" lon="8.798282761126757">
148        <ele>479.58999999999997</ele>
149        <time>2016-01-03T12:02:15Z</time>
150      </trkpt>
151      <trkpt lat="47.19734919257462" lon="8.798161642625928">
152        <ele>481.18000000000001</ele>
153        <time>2016-01-03T12:02:18Z</time>
154      </trkpt>
155      <trkpt lat="47.197348270565271" lon="8.798118894919753">
156        <ele>481.88</ele>
157        <time>2016-01-03T12:02:20Z</time>
158      </trkpt>
159      <trkpt lat="47.197305858135223" lon="8.798028873279691">
160        <ele>483.11000000000001</ele>
161        <time>2016-01-03T12:02:24Z</time>
162      </trkpt>
163      <trkpt lat="47.197276437655091" lon="8.797974558547139">
164        <ele>484.49000000000001</ele>
165        <time>2016-01-03T12:02:27Z</time>
166      </trkpt>
167      <trkpt lat="47.197201587259769" lon="8.797768447548151">
168        <ele>486.88</ele>
169        <time>2016-01-03T12:02:35Z</time>
170      </trkpt>
171      <trkpt lat="47.197086336091161" lon="8.797464016824961">
172        <ele>488.05000000000001</ele>
173        <time>2016-01-03T12:02:48Z</time>
174      </trkpt>
175      <trkpt lat="47.197070075199008" lon="8.79741758108139">
176        <ele>487.76999999999998</ele>
177        <time>2016-01-03T12:02:51Z</time>
178      </trkpt>
179      <trkpt lat="47.197029171511531" lon="8.797250529751182">
180        <ele>488.95999999999998</ele>
181        <time>2016-01-03T12:02:57Z</time>
182      </trkpt>
183      <trkpt lat="47.196998996660113" lon="8.797172158956528">
184        <ele>488.36000000000001</ele>
185        <time>2016-01-03T12:03:01Z</time>
186      </trkpt>
187      <trkpt lat="47.196912243962288" lon="8.796978034079075">
188        <ele>488.35000000000002</ele>
189        <time>2016-01-03T12:03:09Z</time>
190      </trkpt>
191      <trkpt lat="47.196905454620719" lon="8.796931263059378">
192        <ele>487.19</ele>
193        <time>2016-01-03T12:03:10Z</time>
194      </trkpt>
195      <trkpt lat="47.196905957534909" lon="8.796886671334505">
196        <ele>487.63999999999999</ele>
197        <time>2016-01-03T12:03:11Z</time>
198      </trkpt>
199      <trkpt lat="47.196905119344592" lon="8.796837385743856">
200        <ele>487.55000000000001</ele>
201        <time>2016-01-03T12:03:12Z</time>
202      </trkpt>
203      <trkpt lat="47.196905622258782" lon="8.796793716028333">
204        <ele>488.39999999999998</ele>
205        <time>2016-01-03T12:03:13Z</time>
206      </trkpt>
207      <trkpt lat="47.196887601166964" lon="8.796751135960221">
208        <ele>489.18000000000001</ele>
209        <time>2016-01-03T12:03:15Z</time>
210      </trkpt>
211      <trkpt lat="47.196889277547598" lon="8.796689361333847">
212        <ele>490.73000000000002</ele>
213        <time>2016-01-03T12:03:18Z</time>
214      </trkpt>
215      <trkpt lat="47.196868155151606" lon="8.796474533155561">
216        <ele>491.24000000000001</ele>
217        <time>2016-01-03T12:03:33Z</time>
218      </trkpt>
219      <trkpt lat="47.19686932861805" lon="8.796442430466414">
220        <ele>490.25</ele>
221        <time>2016-01-03T12:03:34Z</time>
222      </trkpt>
223      <trkpt lat="47.196868490427732" lon="8.796406639739871">
224        <ele>490.00999999999999</ele>
225        <time>2016-01-03T12:03:35Z</time>
226      </trkpt>
227      <trkpt lat="47.196873016655445" lon="8.796368166804314">
228        <ele>489.54000000000002</ele>
229        <time>2016-01-03T12:03:36Z</time>
230      </trkpt>
231      <trkpt lat="47.196879051625729" lon="8.796329610049725">
232        <ele>489.66000000000003</ele>
233        <time>2016-01-03T12:03:37Z</time>
234      </trkpt>
235      <trkpt lat="47.196886762976646" lon="8.796280743554235">
236        <ele>489.06</ele>
237        <time>2016-01-03T12:03:38Z</time>
238      </trkpt>
239      <trkpt lat="47.196957757696509" lon="8.795829126611352">
240        <ele>490.08999999999997</ele>
241        <time>2016-01-03T12:03:48Z</time>
242      </trkpt>
243      <trkpt lat="47.196992877870798" lon="8.795709516853094">
244        <ele>489.41000000000003</ele>
245        <time>2016-01-03T12:03:52Z</time>
246      </trkpt>
247      <trkpt lat="47.196985501796007" lon="8.795667607337236">
248        <ele>489.17000000000002</ele>
249        <time>2016-01-03T12:03:53Z</time>
250      </trkpt>
251      <trkpt lat="47.196976449340582" lon="8.795624608173966">
252        <ele>488.87</ele>
253        <time>2016-01-03T12:03:54Z</time>
254      </trkpt>
255      <trkpt lat="47.196968905627728" lon="8.795590326189995">
256        <ele>489.37</ele>
257        <time>2016-01-03T12:03:55Z</time>
258      </trkpt>
259      <trkpt lat="47.196966642513871" lon="8.795558391138911">
260        <ele>488.94999999999999</ele>
261        <time>2016-01-03T12:03:56Z</time>
262      </trkpt>
263      <trkpt lat="47.196952560916543" lon="8.795536765828729">
264        <ele>488.93000000000001</ele>
265        <time>2016-01-03T12:03:57Z</time>
266      </trkpt>
267      <trkpt lat="47.196956500411034" lon="8.795507680624723">
268        <ele>488.88999999999999</ele>
269        <time>2016-01-03T12:03:58Z</time>
270      </trkpt>
271      <trkpt lat="47.196958595886827" lon="8.79548110999167">
272        <ele>488.86000000000001</ele>
273        <time>2016-01-03T12:03:59Z</time>
274      </trkpt>
275      <trkpt lat="47.196969073265791" lon="8.795452527701855">
276        <ele>489.19999999999999</ele>
277        <time>2016-01-03T12:04:00Z</time>
278      </trkpt>
279      <trkpt lat="47.196979885920882" lon="8.79541271366179">
280        <ele>489.29000000000002</ele>
281        <speed>7.38</speed>
282        <time>2016-01-03T12:04:01Z</time>
283      </trkpt>
284      <trkpt lat="47.196987261995673" lon="8.795355297625065">
285        <ele>488.95999999999998</ele>
286        <time>2016-01-03T12:04:02Z</time>
287      </trkpt>
288      <trkpt lat="47.196989608928561" lon="8.795302575454116">
289        <ele>489.10000000000002</ele>
290        <time>2016-01-03T12:04:03Z</time>
291      </trkpt>
292      <trkpt lat="47.196909813210368" lon="8.79494265653193">
293        <ele>492.19</ele>
294        <time>2016-01-03T12:04:14Z</time>
295      </trkpt>
296      <trkpt lat="47.196966223418713" lon="8.794532027095556">
297        <ele>492.12</ele>
298        <time>2016-01-03T12:04:25Z</time>
299      </trkpt>
300      <trkpt lat="47.196977371349931" lon="8.794502858072519">
301        <ele>493.06999999999999</ele>
302        <time>2016-01-03T12:04:26Z</time>
303      </trkpt>
304      <trkpt lat="47.196992123499513" lon="8.794450974091888">
305        <ele>492.58999999999997</ele>
306        <time>2016-01-03T12:04:27Z</time>
307      </trkpt>
308      <trkpt lat="47.196994051337242" lon="8.794399006292224">
309        <ele>492.38999999999999</ele>
310        <time>2016-01-03T12:04:28Z</time>
311      </trkpt>
312      <trkpt lat="47.196988603100181" lon="8.794350139796734">
313        <ele>492.94</ele>
314        <time>2016-01-03T12:04:29Z</time>
315      </trkpt>
316      <trkpt lat="47.196982149034739" lon="8.794298926368356">
317        <ele>492.47000000000003</ele>
318        <time>2016-01-03T12:04:30Z</time>
319      </trkpt>
320      <trkpt lat="47.196977371349931" lon="8.794246790930629">
321        <ele>492.50999999999999</ele>
322        <time>2016-01-03T12:04:31Z</time>
323      </trkpt>
324      <trkpt lat="47.196982065215707" lon="8.794189291074872">
325        <ele>492.73000000000002</ele>
326        <time>2016-01-03T12:04:32Z</time>
327      </trkpt>
328      <trkpt lat="47.196985417976975" lon="8.794133719056845">
329        <ele>492.63</ele>
330        <time>2016-01-03T12:04:33Z</time>
331      </trkpt>
332      <trkpt lat="47.196987681090832" lon="8.794077644124627">
333        <ele>493</ele>
334        <time>2016-01-03T12:04:34Z</time>
335      </trkpt>
336      <trkpt lat="47.196991369128227" lon="8.794022323563695">
337        <ele>493.00999999999999</ele>
338        <time>2016-01-03T12:04:35Z</time>
339      </trkpt>
340      <trkpt lat="47.196987848728895" lon="8.793976558372378">
341        <ele>493.19999999999999</ele>
342        <time>2016-01-03T12:04:36Z</time>
343      </trkpt>
344      <trkpt lat="47.196985501796007" lon="8.793926937505603">
345        <ele>493.18000000000001</ele>
346        <time>2016-01-03T12:04:37Z</time>
347      </trkpt>
348      <trkpt lat="47.196980556473136" lon="8.793885698541999">
349        <ele>493</ele>
350        <time>2016-01-03T12:04:38Z</time>
351      </trkpt>
352      <trkpt lat="47.196983071044087" lon="8.793837334960699">
353        <ele>493.20999999999998</ele>
354        <time>2016-01-03T12:04:39Z</time>
355      </trkpt>
356      <trkpt lat="47.196992291137576" lon="8.793786959722638">
357        <ele>493.11000000000001</ele>
358        <time>2016-01-03T12:04:40Z</time>
359      </trkpt>
360      <trkpt lat="47.196995476260781" lon="8.793743625283241">
361        <ele>493.30000000000001</ele>
362        <time>2016-01-03T12:04:41Z</time>
363      </trkpt>
364      <trkpt lat="47.197002684697509" lon="8.793694507330656">
365        <ele>493.50999999999999</ele>
366        <time>2016-01-03T12:04:42Z</time>
367      </trkpt>
368      <trkpt lat="47.197005115449429" lon="8.793357806280255">
369        <ele>493</ele>
370        <time>2016-01-03T12:04:50Z</time>
371      </trkpt>
372      <trkpt lat="47.197021627798676" lon="8.793316148221493">
373        <ele>492.37</ele>
374        <time>2016-01-03T12:04:51Z</time>
375      </trkpt>
376      <trkpt lat="47.197044594213367" lon="8.793262336403132">
377        <ele>492.30000000000001</ele>
378        <time>2016-01-03T12:04:52Z</time>
379      </trkpt>
380      <trkpt lat="47.197069069370627" lon="8.793201064690948">
381        <ele>492.04000000000002</ele>
382        <time>2016-01-03T12:04:53Z</time>
383      </trkpt>
384      <trkpt lat="47.197089856490493" lon="8.793123783543706">
385        <ele>491.37</ele>
386        <time>2016-01-03T12:04:54Z</time>
387      </trkpt>
388      <trkpt lat="47.197109134867787" lon="8.793046250939369">
389        <ele>491.06999999999999</ele>
390        <time>2016-01-03T12:04:55Z</time>
391      </trkpt>
392      <trkpt lat="47.197131179273129" lon="8.792974585667253">
393        <ele>490.39999999999998</ele>
394        <time>2016-01-03T12:04:56Z</time>
395      </trkpt>
396      <trkpt lat="47.197186248376966" lon="8.792809881269932">
397        <ele>489.75</ele>
398        <time>2016-01-03T12:04:58Z</time>
399      </trkpt>
400      <trkpt lat="47.197207538411021" lon="8.79271550104022">
401        <ele>489.87</ele>
402        <time>2016-01-03T12:04:59Z</time>
403      </trkpt>
404      <trkpt lat="47.197222961112857" lon="8.792620282620192">
405        <ele>488.95999999999998</ele>
406        <time>2016-01-03T12:05:00Z</time>
407      </trkpt>
408      <trkpt lat="47.197339301928878" lon="8.792043440043926">
409        <ele>485.85000000000002</ele>
410        <time>2016-01-03T12:05:06Z</time>
411      </trkpt>
412      <trkpt lat="47.197452206164598" lon="8.791516218334436">
413        <ele>482.81</ele>
414        <time>2016-01-03T12:05:11Z</time>
415      </trkpt>
416      <trkpt lat="47.197455475106835" lon="8.79138101823628">
417        <ele>481.99000000000001</ele>
418        <time>2016-01-03T12:05:12Z</time>
419      </trkpt>
420      <trkpt lat="47.197490092366934" lon="8.79095789976418">
421        <ele>478.92000000000002</ele>
422        <time>2016-01-03T12:05:15Z</time>
423      </trkpt>
424      <trkpt lat="47.197532253339887" lon="8.790533943101764">
425        <ele>475.89999999999998</ele>
426        <time>2016-01-03T12:05:18Z</time>
427      </trkpt>
428      <trkpt lat="47.197628645226359" lon="8.789889458566904">
429        <ele>474.38</ele>
430        <time>2016-01-03T12:05:23Z</time>
431      </trkpt>
432      <trkpt lat="47.197637446224689" lon="8.789792899042368">
433        <ele>474.35000000000002</ele>
434        <time>2016-01-03T12:05:24Z</time>
435      </trkpt>
436      <trkpt lat="47.1976438164711" lon="8.789720982313156">
437        <ele>474.12</ele>
438        <time>2016-01-03T12:05:25Z</time>
439      </trkpt>
440      <trkpt lat="47.197648594155908" lon="8.789367768913508">
441        <ele>472.52999999999997</ele>
442        <time>2016-01-03T12:05:33Z</time>
443      </trkpt>
444      <trkpt lat="47.197656137868762" lon="8.789310688152909">
445        <ele>472.75</ele>
446        <time>2016-01-03T12:05:34Z</time>
447      </trkpt>
448      <trkpt lat="47.197690336033702" lon="8.789105415344238">
449        <ele>472.19</ele>
450        <time>2016-01-03T12:05:37Z</time>
451      </trkpt>
452      <trkpt lat="47.197700729593635" lon="8.789032660424709">
453        <ele>471.92000000000002</ele>
454        <time>2016-01-03T12:05:38Z</time>
455      </trkpt>
456      <trkpt lat="47.197715900838375" lon="8.78876687027514">
457        <ele>471.98000000000002</ele>
458        <time>2016-01-03T12:05:41Z</time>
459      </trkpt>
460      <trkpt lat="47.197754625231028" lon="8.788432851433754">
461        <ele>473.49000000000001</ele>
462        <time>2016-01-03T12:05:47Z</time>
463      </trkpt>
464      <trkpt lat="47.197777507826686" lon="8.788416003808379">
465        <ele>473.44999999999999</ele>
466        <time>2016-01-03T12:05:48Z</time>
467      </trkpt>
468      <trkpt lat="47.197800641879439" lon="8.788405358791351">
469        <ele>473.45999999999998</ele>
470        <time>2016-01-03T12:05:49Z</time>
471      </trkpt>
472      <trkpt lat="47.197963669896126" lon="8.788386499509215">
473        <ele>470.27999999999997</ele>
474        <time>2016-01-03T12:05:53Z</time>
475      </trkpt>
476      <trkpt lat="47.198130888864398" lon="8.788295891135931">
477        <ele>467.20999999999998</ele>
478        <time>2016-01-03T12:05:57Z</time>
479      </trkpt>
480      <trkpt lat="47.19813633710146" lon="8.788262866437435">
481        <ele>466.89999999999998</ele>
482        <time>2016-01-03T12:05:58Z</time>
483      </trkpt>
484      <trkpt lat="47.198126614093781" lon="8.788229255005717">
485        <ele>466.76999999999998</ele>
486        <time>2016-01-03T12:05:59Z</time>
487      </trkpt>
488      <trkpt lat="47.198103060945868" lon="8.788186172023416">
489        <ele>466.25</ele>
490        <time>2016-01-03T12:06:00Z</time>
491      </trkpt>
492      <trkpt lat="47.198083698749542" lon="8.788127414882183">
493        <ele>465.23000000000002</ele>
494        <time>2016-01-03T12:06:01Z</time>
495      </trkpt>
496      <trkpt lat="47.198078166693449" lon="8.788059940561652">
497        <ele>464.12</ele>
498        <time>2016-01-03T12:06:02Z</time>
499      </trkpt>
500      <trkpt lat="47.198088811710477" lon="8.787991376593709">
501        <ele>463.68000000000001</ele>
502        <time>2016-01-03T12:06:03Z</time>
503      </trkpt>
504      <trkpt lat="47.19811093993485" lon="8.787914346903563">
505        <ele>462.5</ele>
506        <time>2016-01-03T12:06:04Z</time>
507      </trkpt>
508      <trkpt lat="47.19815100543201" lon="8.78783798776567">
509        <ele>462.45999999999998</ele>
510        <time>2016-01-03T12:06:05Z</time>
511      </trkpt>
512      <trkpt lat="47.198194926604629" lon="8.787756934762001">
513        <ele>461.56999999999999</ele>
514        <time>2016-01-03T12:06:06Z</time>
515      </trkpt>
516      <trkpt lat="47.198286037892103" lon="8.787589464336634">
517        <ele>461.14999999999998</ele>
518        <time>2016-01-03T12:06:08Z</time>
519      </trkpt>
520      <trkpt lat="47.19831814058125" lon="8.7874944973737">
521        <ele>460.19</ele>
522        <time>2016-01-03T12:06:09Z</time>
523      </trkpt>
524      <trkpt lat="47.198330964893103" lon="8.787389053031802">
525        <ele>459.83999999999997</ele>
526        <time>2016-01-03T12:06:10Z</time>
527      </trkpt>
528      <trkpt lat="47.198331551626325" lon="8.787284530699253">
529        <ele>460.49000000000001</ele>
530        <time>2016-01-03T12:06:11Z</time>
531      </trkpt>
532      <trkpt lat="47.198325265198946" lon="8.787185624241829">
533        <ele>460.23000000000002</ele>
534        <time>2016-01-03T12:06:12Z</time>
535      </trkpt>
536      <trkpt lat="47.198242451995611" lon="8.78635254688561">
537        <ele>460.56999999999999</ele>
538        <time>2016-01-03T12:06:22Z</time>
539      </trkpt>
540      <trkpt lat="47.198192747309804" lon="8.785861451178789">
541        <ele>457.79000000000002</ele>
542        <time>2016-01-03T12:06:27Z</time>
543      </trkpt>
544      <trkpt lat="47.198192495852709" lon="8.78536943346262">
545        <ele>454.66000000000003</ele>
546        <time>2016-01-03T12:06:31Z</time>
547      </trkpt>
548      <trkpt lat="47.198174810037017" lon="8.784985039383173">
549        <ele>453.24000000000001</ele>
550        <time>2016-01-03T12:06:34Z</time>
551      </trkpt>
552      <trkpt lat="47.198160560801625" lon="8.784750597551465">
553        <ele>450.20999999999998</ele>
554        <time>2016-01-03T12:06:36Z</time>
555      </trkpt>
556      <trkpt lat="47.198155196383595" lon="8.784640291705728">
557        <ele>450.24000000000001</ele>
558        <time>2016-01-03T12:06:37Z</time>
559      </trkpt>
560      <trkpt lat="47.198156453669071" lon="8.784529399126768">
561        <ele>448.61000000000001</ele>
562        <time>2016-01-03T12:06:38Z</time>
563      </trkpt>
564      <trkpt lat="47.198163997381926" lon="8.784421188756824">
565        <ele>447.69</ele>
566        <time>2016-01-03T12:06:39Z</time>
567      </trkpt>
568      <trkpt lat="47.198176067322493" lon="8.784317336976528">
569        <ele>447.02999999999997</ele>
570        <time>2016-01-03T12:06:40Z</time>
571      </trkpt>
572      <trkpt lat="47.198192328214645" lon="8.784221196547151">
573        <ele>445.79000000000002</ele>
574        <time>2016-01-03T12:06:41Z</time>
575      </trkpt>
576      <trkpt lat="47.198209259659052" lon="8.784135701134801">
577        <ele>444.92000000000002</ele>
578        <time>2016-01-03T12:06:42Z</time>
579      </trkpt>
580      <trkpt lat="47.198231890797615" lon="8.784063197672367">
581        <ele>444.45999999999998</ele>
582        <time>2016-01-03T12:06:43Z</time>
583      </trkpt>
584      <trkpt lat="47.198262820020318" lon="8.78400712274015">
585        <ele>443.93000000000001</ele>
586        <time>2016-01-03T12:06:44Z</time>
587      </trkpt>
588      <trkpt lat="47.19830397516489" lon="8.783963955938816">
589        <ele>443.87</ele>
590        <time>2016-01-03T12:06:45Z</time>
591      </trkpt>
592      <trkpt lat="47.198458202183247" lon="8.783821295946837">
593        <ele>441.69999999999999</ele>
594        <time>2016-01-03T12:06:48Z</time>
595      </trkpt>
596      <trkpt lat="47.1985072363168" lon="8.783753989264369">
597        <ele>442.23000000000002</ele>
598        <time>2016-01-03T12:06:49Z</time>
599      </trkpt>
600      <trkpt lat="47.19855316914618" lon="8.783676540479064">
601        <ele>441.95999999999998</ele>
602        <time>2016-01-03T12:06:50Z</time>
603      </trkpt>
604      <trkpt lat="47.198689877986908" lon="8.783424664288759">
605        <ele>440.14999999999998</ele>
606        <time>2016-01-03T12:06:53Z</time>
607      </trkpt>
608      <trkpt lat="47.198787024244666" lon="8.783246632665396">
609        <ele>438.99000000000001</ele>
610        <time>2016-01-03T12:06:55Z</time>
611      </trkpt>
612      <trkpt lat="47.19909748993814" lon="8.782679932191968">
613        <ele>435.69</ele>
614        <time>2016-01-03T12:07:01Z</time>
615      </trkpt>
616      <trkpt lat="47.199148284271359" lon="8.782580774277449">
617        <ele>435.45999999999998</ele>
618        <time>2016-01-03T12:07:02Z</time>
619      </trkpt>
620      <trkpt lat="47.199404938146472" lon="8.782066041603684">
621        <ele>431.98000000000002</ele>
622        <time>2016-01-03T12:07:07Z</time>
623      </trkpt>
624      <trkpt lat="47.199485991150141" lon="8.781830258667469">
625        <ele>431.12</ele>
626        <time>2016-01-03T12:07:09Z</time>
627      </trkpt>
628      <trkpt lat="47.1996418107301" lon="8.781351484358311">
629        <ele>427.87</ele>
630        <time>2016-01-03T12:07:13Z</time>
631      </trkpt>
632      <trkpt lat="47.199689168483019" lon="8.781257439404726">
633        <ele>427.97000000000003</ele>
634        <time>2016-01-03T12:07:14Z</time>
635      </trkpt>
636      <trkpt lat="47.199740214273334" lon="8.78118091262877">
637        <ele>427.36000000000001</ele>
638        <time>2016-01-03T12:07:15Z</time>
639      </trkpt>
640      <trkpt lat="47.199787823483348" lon="8.781111678108573">
641        <ele>426.97000000000003</ele>
642        <time>2016-01-03T12:07:16Z</time>
643      </trkpt>
644      <trkpt lat="47.199824703857303" lon="8.781037917360663">
645        <ele>426.38</ele>
646        <time>2016-01-03T12:07:17Z</time>
647      </trkpt>
648      <trkpt lat="47.199841467663646" lon="8.780954517424107">
649        <ele>426.74000000000001</ele>
650        <time>2016-01-03T12:07:18Z</time>
651      </trkpt>
652      <trkpt lat="47.199842557311058" lon="8.780868854373694">
653        <ele>426.91000000000003</ele>
654        <time>2016-01-03T12:07:19Z</time>
655      </trkpt>
656      <trkpt lat="47.199838701635599" lon="8.780791657045484">
657        <ele>427.19</ele>
658        <time>2016-01-03T12:07:20Z</time>
659      </trkpt>
660      <trkpt lat="47.199839036911726" lon="8.780646901577711">
661        <ele>427.38999999999999</ele>
662        <time>2016-01-03T12:07:22Z</time>
663      </trkpt>
664      <trkpt lat="47.199851861223578" lon="8.780574817210436">
665        <ele>426.94</ele>
666        <time>2016-01-03T12:07:23Z</time>
667      </trkpt>
668      <trkpt lat="47.199871055781841" lon="8.780505582690239">
669        <ele>426.48000000000002</ele>
670        <time>2016-01-03T12:07:24Z</time>
671      </trkpt>
672      <trkpt lat="47.200363827869296" lon="8.779247710481286">
673        <ele>423.64999999999998</ele>
674        <time>2016-01-03T12:07:41Z</time>
675      </trkpt>
676      <trkpt lat="47.200817875564098" lon="8.778209611773491">
677        <ele>422.06999999999999</ele>
678        <time>2016-01-03T12:07:55Z</time>
679      </trkpt>
680      <trkpt lat="47.201091544702649" lon="8.777585159987211">
681        <ele>421.18000000000001</ele>
682        <time>2016-01-03T12:08:06Z</time>
683      </trkpt>
684      <trkpt lat="47.201127419248223" lon="8.777348203584552">
685        <ele>419.81999999999999</ele>
686        <time>2016-01-03T12:08:10Z</time>
687      </trkpt>
688      <trkpt lat="47.201350377872586" lon="8.776617804542184">
689        <ele>418.05000000000001</ele>
690        <time>2016-01-03T12:08:20Z</time>
691      </trkpt>
692      <trkpt lat="47.201379965990782" lon="8.776486292481422">
693        <ele>417.81</ele>
694        <time>2016-01-03T12:08:22Z</time>
695      </trkpt>
696      <trkpt lat="47.201369823887944" lon="8.776425942778587">
697        <ele>418.02999999999997</ele>
698        <time>2016-01-03T12:08:23Z</time>
699      </trkpt>
700      <trkpt lat="47.201347779482603" lon="8.77637087367475">
701        <ele>418.06</ele>
702        <time>2016-01-03T12:08:24Z</time>
703      </trkpt>
704      <trkpt lat="47.201291872188449" lon="8.776263920590282">
705        <ele>418.32999999999998</ele>
706        <time>2016-01-03T12:08:26Z</time>
707      </trkpt>
708      <trkpt lat="47.201229929924011" lon="8.776174485683441">
709        <ele>418.72000000000003</ele>
710        <time>2016-01-03T12:08:28Z</time>
711      </trkpt>
712      <trkpt lat="47.201203946024179" lon="8.776124026626349">
713        <ele>418.20999999999998</ele>
714        <time>2016-01-03T12:08:29Z</time>
715      </trkpt>
716      <trkpt lat="47.201192546635866" lon="8.776061497628689">
717        <ele>418.70999999999998</ele>
718        <time>2016-01-03T12:08:30Z</time>
719      </trkpt>
720      <trkpt lat="47.201194642111659" lon="8.77599410712719">
721        <ele>418.79000000000002</ele>
722        <time>2016-01-03T12:08:31Z</time>
723      </trkpt>
724      <trkpt lat="47.201202772557735" lon="8.775926465168595">
725        <ele>419.05000000000001</ele>
726        <time>2016-01-03T12:08:32Z</time>
727      </trkpt>
728      <trkpt lat="47.201270749792457" lon="8.775376528501511">
729        <ele>420.47000000000003</ele>
730        <time>2016-01-03T12:08:40Z</time>
731      </trkpt>
732      <trkpt lat="47.201291369274259" lon="8.77517418935895">
733        <ele>420.68000000000001</ele>
734        <time>2016-01-03T12:08:43Z</time>
735      </trkpt>
736      <trkpt lat="47.201323304325342" lon="8.774973526597023">
737        <ele>421.39999999999998</ele>
738        <time>2016-01-03T12:08:46Z</time>
739      </trkpt>
740      <trkpt lat="47.201389018446207" lon="8.774476982653141">
741        <ele>421.52999999999997</ele>
742        <time>2016-01-03T12:08:53Z</time>
743      </trkpt>
744      <trkpt lat="47.201492534950376" lon="8.773281471803784">
745        <ele>423.57999999999998</ele>
746        <time>2016-01-03T12:09:10Z</time>
747      </trkpt>
748      <trkpt lat="47.201487841084599" lon="8.772208672016859">
749        <ele>423</ele>
750        <time>2016-01-03T12:09:26Z</time>
751      </trkpt>
752      <trkpt lat="47.201499743387103" lon="8.772082105278969">
753        <ele>423.07999999999998</ele>
754        <time>2016-01-03T12:09:28Z</time>
755      </trkpt>
756      <trkpt lat="47.201489685103297" lon="8.772034915164113">
757        <ele>423.02999999999997</ele>
758        <time>2016-01-03T12:09:29Z</time>
759      </trkpt>
760      <trkpt lat="47.201443249359727" lon="8.77200884744525">
761        <ele>422.26999999999998</ele>
762        <time>2016-01-03T12:09:31Z</time>
763      </trkpt>
764      <trkpt lat="47.201405949890614" lon="8.772033825516701">
765        <ele>421.35000000000002</ele>
766        <time>2016-01-03T12:09:42Z</time>
767      </trkpt>
768      <trkpt lat="47.201326573267579" lon="8.771982276812196">
769        <ele>421.75</ele>
770        <time>2016-01-03T12:10:04Z</time>
771      </trkpt>
772      <trkpt lat="47.201268151402473" lon="8.77192972227931">
773        <ele>421.48000000000002</ele>
774        <time>2016-01-03T12:10:23Z</time>
775      </trkpt>
776    </trkseg>
777  </trk>
778
779  <trk>
780    <name>Schotterstrasse durch Wald</name>
781    <extensions>
782      <gpxx:TrackExtension xmlns:gpxx="http://www.garmin.com/xmlschemas/GpxExtensions/v3">
783        <gpxx:DisplayColor>Blue</gpxx:DisplayColor>
784      </gpxx:TrackExtension>
785    </extensions>
786    <trkseg>
787      <trkpt lat="47.186606526374817" lon="8.796921372413635">
788        <ele>624.7421875</ele>
789      </trkpt>
790      <trkpt lat="47.186644077301025" lon="8.796824812889099">
791        <ele>626.015625</ele>
792      </trkpt>
793      <trkpt lat="47.186697721481323" lon="8.796712160110474">
794        <ele>627.0625</ele>
795      </trkpt>
796      <trkpt lat="47.186762094497681" lon="8.796610236167908">
797        <ele>627.3671875</ele>
798      </trkpt>
799      <trkpt lat="47.186837196350098" lon="8.796519041061401">
800        <ele>626.90234375</ele>
801      </trkpt>
802      <trkpt lat="47.186912298202515" lon="8.796401023864746">
803        <ele>626.11328125</ele>
804      </trkpt>
805      <trkpt lat="47.186987400054932" lon="8.796277642250061">
806        <ele>625.33203125</ele>
807      </trkpt>
808      <trkpt lat="47.187078595161438" lon="8.796148896217346">
809        <ele>623.90625</ele>
810      </trkpt>
811      <trkpt lat="47.187105417251587" lon="8.796095252037048">
812        <ele>623.66796875</ele>
813      </trkpt>
814      <trkpt lat="47.187126874923706" lon="8.796030879020691">
815        <ele>623.71484375</ele>
816      </trkpt>
817      <trkpt lat="47.187132239341736" lon="8.795977234840393">
818        <ele>623.75</ele>
819      </trkpt>
820      <trkpt lat="47.187132239341736" lon="8.795923590660095">
821        <ele>623.9375</ele>
822      </trkpt>
823      <trkpt lat="47.187132239341736" lon="8.795859217643738">
824        <ele>624.1640625</ele>
825      </trkpt>
826      <trkpt lat="47.187110781669617" lon="8.795735836029053">
827        <ele>625.234375</ele>
828      </trkpt>
829      <trkpt lat="47.187100052833557" lon="8.795607089996338">
830        <ele>626</ele>
831      </trkpt>
832      <trkpt lat="47.187094688415527" lon="8.795521259307861">
833        <ele>626.3515625</ele>
834      </trkpt>
835      <trkpt lat="47.187105417251587" lon="8.795440793037415">
836        <ele>626.14453125</ele>
837      </trkpt>
838      <trkpt lat="47.187126874923706" lon="8.795360326766968">
839        <ele>625.6640625</ele>
840      </trkpt>
841      <trkpt lat="47.187164425849915" lon="8.795285224914551">
842        <ele>624.7890625</ele>
843      </trkpt>
844      <trkpt lat="47.187234163284302" lon="8.795183300971985">
845        <ele>623.23046875</ele>
846      </trkpt>
847      <trkpt lat="47.187293171882629" lon="8.795086741447449">
848        <ele>622.09375</ele>
849      </trkpt>
850      <trkpt lat="47.187362909317017" lon="8.794984817504883">
851        <ele>620.9765625</ele>
852      </trkpt>
853      <trkpt lat="47.187416553497314" lon="8.794904351234436">
854        <ele>620.23828125</ele>
855      </trkpt>
856      <trkpt lat="47.187464833259583" lon="8.794845342636108">
857        <ele>619.42578125</ele>
858      </trkpt>
859      <trkpt lat="47.18752384185791" lon="8.79479706287384">
860        <ele>617.7734375</ele>
861      </trkpt>
862      <trkpt lat="47.187561392784119" lon="8.794743418693543">
863        <ele>616.8671875</ele>
864      </trkpt>
865      <trkpt lat="47.187593579292297" lon="8.794695138931274">
866        <ele>616.09765625</ele>
867      </trkpt>
868      <trkpt lat="47.187609672546387" lon="8.794630765914917">
869        <ele>615.87890625</ele>
870      </trkpt>
871      <trkpt lat="47.187620401382446" lon="8.7945556640625">
872        <ele>615.3984375</ele>
873      </trkpt>
874      <trkpt lat="47.187636494636536" lon="8.794485926628113">
875        <ele>614.76953125</ele>
876      </trkpt>
877      <trkpt lat="47.187674045562744" lon="8.794400095939636">
878        <ele>613.47265625</ele>
879      </trkpt>
880      <trkpt lat="47.187695503234863" lon="8.79430890083313">
881        <ele>612.72265625</ele>
882      </trkpt>
883      <trkpt lat="47.187700867652893" lon="8.794185519218445">
884        <ele>612.4609375</ele>
885      </trkpt>
886      <trkpt lat="47.187700867652893" lon="8.794078230857849">
887        <ele>611.85546875</ele>
888      </trkpt>
889      <trkpt lat="47.187684774398804" lon="8.793997764587402">
890        <ele>611.90625</ele>
891      </trkpt>
892      <trkpt lat="47.187663316726685" lon="8.793933391571045">
893        <ele>612.27734375</ele>
894      </trkpt>
895      <trkpt lat="47.187615036964417" lon="8.793869018554688">
896        <ele>613.66796875</ele>
897      </trkpt>
898      <trkpt lat="47.187582850456238" lon="8.79381537437439">
899        <ele>614.62890625</ele>
900      </trkpt>
901      <trkpt lat="47.187566757202148" lon="8.793767094612122">
902        <ele>615.0703125</ele>
903      </trkpt>
904      <trkpt lat="47.187572121620178" lon="8.793713450431824">
905        <ele>614.72265625</ele>
906      </trkpt>
907      <trkpt lat="47.187588214874268" lon="8.793681263923645">
908        <ele>614.26171875</ele>
909      </trkpt>
910      <trkpt lat="47.187641859054565" lon="8.793681263923645">
911        <ele>612.06640625</ele>
912      </trkpt>
913      <trkpt lat="47.187700867652893" lon="8.793708086013794">
914        <ele>609.6875</ele>
915      </trkpt>
916      <trkpt lat="47.18778133392334" lon="8.793751001358032">
917        <ele>606.83984375</ele>
918      </trkpt>
919      <trkpt lat="47.187851071357727" lon="8.79380464553833">
920        <ele>604.671875</ele>
921      </trkpt>
922      <trkpt lat="47.187920808792114" lon="8.793842196464539">
923        <ele>602.52734375</ele>
924      </trkpt>
925      <trkpt lat="47.188001275062561" lon="8.793911933898926">
926        <ele>600.78515625</ele>
927      </trkpt>
928      <trkpt lat="47.188113927841187" lon="8.794013857841492">
929        <ele>598.078125</ele>
930      </trkpt>
931      <trkpt lat="47.188151478767395" lon="8.79406213760376">
932        <ele>597.1953125</ele>
933      </trkpt>
934      <trkpt lat="47.188189029693604" lon="8.794153332710266">
935        <ele>596.5234375</ele>
936      </trkpt>
937      <trkpt lat="47.188215851783752" lon="8.794239163398743">
938        <ele>595.74609375</ele>
939      </trkpt>
940      <trkpt lat="47.188242673873901" lon="8.794351816177368">
941        <ele>594.82421875</ele>
942      </trkpt>
943      <trkpt lat="47.188264131546021" lon="8.794426918029785">
944        <ele>594.10546875</ele>
945      </trkpt>
946      <trkpt lat="47.188290953636169" lon="8.794475197792053">
947        <ele>593.2109375</ele>
948      </trkpt>
949      <trkpt lat="47.188307046890259" lon="8.794523477554321">
950        <ele>592.6875</ele>
951      </trkpt>
952      <trkpt lat="47.188312411308289" lon="8.794614672660828">
953        <ele>592.5390625</ele>
954      </trkpt>
955      <trkpt lat="47.188307046890259" lon="8.79479706287384">
956        <ele>592.7578125</ele>
957      </trkpt>
958      <trkpt lat="47.188307046890259" lon="8.794888257980347">
959        <ele>592.77734375</ele>
960      </trkpt>
961      <trkpt lat="47.188312411308289" lon="8.794941902160645">
962        <ele>592.63671875</ele>
963      </trkpt>
964      <trkpt lat="47.188333868980408" lon="8.794995546340942">
965        <ele>592.06640625</ele>
966      </trkpt>
967      <trkpt lat="47.188366055488586" lon="8.7950599193573">
968        <ele>591.2578125</ele>
969      </trkpt>
970      <trkpt lat="47.188403606414795" lon="8.795113563537598">
971        <ele>590.46875</ele>
972      </trkpt>
973      <trkpt lat="47.188435792922974" lon="8.795167207717896">
974        <ele>589.7578125</ele>
975      </trkpt>
976      <trkpt lat="47.188451886177063" lon="8.795226216316223">
977        <ele>589.359375</ele>
978      </trkpt>
979      <trkpt lat="47.188462615013123" lon="8.795290589332581">
980        <ele>589.05859375</ele>
981      </trkpt>
982      <trkpt lat="47.188451886177063" lon="8.795354962348938">
983        <ele>589.21875</ele>
984      </trkpt>
985      <trkpt lat="47.188430428504944" lon="8.795451521873474">
986        <ele>589.59375</ele>
987      </trkpt>
988      <trkpt lat="47.188408970832825" lon="8.7955641746521">
989        <ele>589.98046875</ele>
990      </trkpt>
991      <trkpt lat="47.188403606414795" lon="8.795655369758606">
992        <ele>589.51953125</ele>
993      </trkpt>
994      <trkpt lat="47.188408970832825" lon="8.795746564865112">
995        <ele>588.796875</ele>
996      </trkpt>
997      <trkpt lat="47.188435792922974" lon="8.795859217643738">
998        <ele>587.4375</ele>
999      </trkpt>
1000      <trkpt lat="47.188478708267212" lon="8.795971870422363">
1001        <ele>585.70703125</ele>
1002      </trkpt>
1003      <trkpt lat="47.188505530357361" lon="8.79605233669281">
1004        <ele>584.48046875</ele>
1005      </trkpt>
1006      <trkpt lat="47.18852162361145" lon="8.796132802963257">
1007        <ele>583.328125</ele>
1008      </trkpt>
1009      <trkpt lat="47.18852162361145" lon="8.796197175979614">
1010        <ele>582.69921875</ele>
1011      </trkpt>
1012      <trkpt lat="47.18851625919342" lon="8.796283006668091">
1013        <ele>581.96875</ele>
1014      </trkpt>
1015      <trkpt lat="47.188500165939331" lon="8.796379566192627">
1016        <ele>581.3359375</ele>
1017      </trkpt>
1018      <trkpt lat="47.188489437103271" lon="8.796465396881104">
1019        <ele>580.6796875</ele>
1020      </trkpt>
1021      <trkpt lat="47.188489437103271" lon="8.796524405479431">
1022        <ele>580.33984375</ele>
1023      </trkpt>
1024      <trkpt lat="47.188500165939331" lon="8.796578049659729">
1025        <ele>580.0234375</ele>
1026      </trkpt>
1027      <trkpt lat="47.18852162361145" lon="8.796631693840027">
1028        <ele>579.5078125</ele>
1029      </trkpt>
1030      <trkpt lat="47.188548445701599" lon="8.796685338020325">
1031        <ele>578.890625</ele>
1032      </trkpt>
1033      <trkpt lat="47.188569903373718" lon="8.796749711036682">
1034        <ele>578.34375</ele>
1035      </trkpt>
1036      <trkpt lat="47.188580632209778" lon="8.796819448471069">
1037        <ele>577.984375</ele>
1038      </trkpt>
1039      <trkpt lat="47.188575267791748" lon="8.796899914741516">
1040        <ele>577.90234375</ele>
1041      </trkpt>
1042      <trkpt lat="47.188585996627808" lon="8.796991109848023">
1043        <ele>577.50390625</ele>
1044      </trkpt>
1045      <trkpt lat="47.188596725463867" lon="8.79704475402832">
1046        <ele>577.20703125</ele>
1047      </trkpt>
1048      <trkpt lat="47.188623547554016" lon="8.797119855880737">
1049        <ele>576.6171875</ele>
1050      </trkpt>
1051      <trkpt lat="47.188666462898254" lon="8.797189593315125">
1052        <ele>575.82421875</ele>
1053      </trkpt>
1054      <trkpt lat="47.188709378242493" lon="8.797211050987244">
1055        <ele>575.125</ele>
1056      </trkpt>
1057      <trkpt lat="47.188714742660522" lon="8.797157406806946">
1058        <ele>575.0546875</ele>
1059      </trkpt>
1060      <trkpt lat="47.188725471496582" lon="8.79705548286438">
1061        <ele>574.89453125</ele>
1062      </trkpt>
1063      <trkpt lat="47.188736200332642" lon="8.796937465667725">
1064        <ele>574.75</ele>
1065      </trkpt>
1066      <trkpt lat="47.188757658004761" lon="8.79681408405304">
1067        <ele>574.6484375</ele>
1068      </trkpt>
1069      <trkpt lat="47.188795208930969" lon="8.796685338020325">
1070        <ele>574.26953125</ele>
1071      </trkpt>
1072      <trkpt lat="47.188838124275208" lon="8.796588778495789">
1073        <ele>573.72265625</ele>
1074      </trkpt>
1075      <trkpt lat="47.188907861709595" lon="8.796438574790955">
1076        <ele>572.4296875</ele>
1077      </trkpt>
1078      <trkpt lat="47.18901515007019" lon="8.796240091323853">
1079        <ele>570.828125</ele>
1080      </trkpt>
1081      <trkpt lat="47.189063429832458" lon="8.796154260635376">
1082        <ele>570.1015625</ele>
1083      </trkpt>
1084      <trkpt lat="47.189154624938965" lon="8.795987963676453">
1085        <ele>568.7734375</ele>
1086      </trkpt>
1087      <trkpt lat="47.189218997955322" lon="8.795869946479797">
1088        <ele>567.8125</ele>
1089      </trkpt>
1090      <trkpt lat="47.189261913299561" lon="8.795778751373291">
1091        <ele>567.25390625</ele>
1092      </trkpt>
1093      <trkpt lat="47.18928337097168" lon="8.795714378356934">
1094        <ele>567.09765625</ele>
1095      </trkpt>
1096      <trkpt lat="47.189294099807739" lon="8.795660734176636">
1097        <ele>567.1640625</ele>
1098      </trkpt>
1099      <trkpt lat="47.189299464225769" lon="8.795580267906189">
1100        <ele>567.546875</ele>
1101      </trkpt>
1102      <trkpt lat="47.189299464225769" lon="8.795451521873474">
1103        <ele>567.86328125</ele>
1104      </trkpt>
1105      <trkpt lat="47.189294099807739" lon="8.7953120470047">
1106        <ele>568.2890625</ele>
1107      </trkpt>
1108      <trkpt lat="47.189294099807739" lon="8.795210123062134">
1109        <ele>568.49609375</ele>
1110      </trkpt>
1111      <trkpt lat="47.189304828643799" lon="8.795135021209717">
1112        <ele>568.33203125</ele>
1113      </trkpt>
1114      <trkpt lat="47.189342379570007" lon="8.794904351234436">
1115        <ele>566.84765625</ele>
1116      </trkpt>
1117      <trkpt lat="47.189347743988037" lon="8.794845342636108">
1118        <ele>566.609375</ele>
1119      </trkpt>
1120      <trkpt lat="47.189337015151978" lon="8.794738054275513">
1121        <ele>566.94140625</ele>
1122      </trkpt>
1123      <trkpt lat="47.189337015151978" lon="8.794657588005066">
1124        <ele>566.88671875</ele>
1125      </trkpt>
1126      <trkpt lat="47.189353108406067" lon="8.794577121734619">
1127        <ele>566.27734375</ele>
1128      </trkpt>
1129      <trkpt lat="47.189374566078186" lon="8.794502019882202">
1130        <ele>565.48046875</ele>
1131      </trkpt>
1132      <trkpt lat="47.189428210258484" lon="8.794384002685547">
1133        <ele>563.5</ele>
1134      </trkpt>
1135      <trkpt lat="47.189455032348633" lon="8.7943035364151">
1136        <ele>562.51953125</ele>
1137      </trkpt>
1138      <trkpt lat="47.189471125602722" lon="8.794206976890564">
1139        <ele>561.9453125</ele>
1140      </trkpt>
1141      <trkpt lat="47.189481854438782" lon="8.794072866439819">
1142        <ele>561.85546875</ele>
1143      </trkpt>
1144      <trkpt lat="47.189497947692871" lon="8.793911933898926">
1145        <ele>561.7578125</ele>
1146      </trkpt>
1147      <trkpt lat="47.189508676528931" lon="8.793788552284241">
1148        <ele>561.765625</ele>
1149      </trkpt>
1150      <trkpt lat="47.18952476978302" lon="8.793686628341675">
1151        <ele>561.453125</ele>
1152      </trkpt>
1153      <trkpt lat="47.189551591873169" lon="8.79356861114502">
1154        <ele>560.6015625</ele>
1155      </trkpt>
1156      <trkpt lat="47.189583778381348" lon="8.793466687202454">
1157        <ele>559.65234375</ele>
1158      </trkpt>
1159      <trkpt lat="47.189615964889526" lon="8.793386220932007">
1160        <ele>558.7578125</ele>
1161      </trkpt>
1162      <trkpt lat="47.189658880233765" lon="8.793278932571411">
1163        <ele>557.66015625</ele>
1164      </trkpt>
1165      <trkpt lat="47.189712524414063" lon="8.793187737464905">
1166        <ele>556.35546875</ele>
1167      </trkpt>
1168      <trkpt lat="47.189760804176331" lon="8.793118000030518">
1169        <ele>555.2265625</ele>
1170      </trkpt>
1171      <trkpt lat="47.189830541610718" lon="8.79304826259613">
1172        <ele>553.53125</ele>
1173      </trkpt>
1174      <trkpt lat="47.189921736717224" lon="8.792962431907654">
1175        <ele>551.265625</ele>
1176      </trkpt>
1177      <trkpt lat="47.189975380897522" lon="8.792903423309326">
1178        <ele>549.92578125</ele>
1179      </trkpt>
1180      <trkpt lat="47.190007567405701" lon="8.792855143547058">
1181        <ele>549.140625</ele>
1182      </trkpt>
1183      <trkpt lat="47.19003438949585" lon="8.792780041694641">
1184        <ele>548.48828125</ele>
1185      </trkpt>
1186      <trkpt lat="47.190045118331909" lon="8.792726397514343">
1187        <ele>548.0078125</ele>
1188      </trkpt>
1189      <trkpt lat="47.190055847167969" lon="8.792635202407837">
1190        <ele>547.39453125</ele>
1191      </trkpt>
1192      <trkpt lat="47.190055847167969" lon="8.79256546497345">
1193        <ele>547.15234375</ele>
1194      </trkpt>
1195      <trkpt lat="47.190050482749939" lon="8.792501091957092">
1196        <ele>547.08203125</ele>
1197      </trkpt>
1198      <trkpt lat="47.19001829624176" lon="8.792366981506348">
1199        <ele>547.55078125</ele>
1200      </trkpt>
1201      <trkpt lat="47.189943194389343" lon="8.792104125022888">
1202        <ele>548.69921875</ele>
1203      </trkpt>
1204      <trkpt lat="47.189932465553284" lon="8.792034387588501">
1205        <ele>548.76953125</ele>
1206      </trkpt>
1207      <trkpt lat="47.189932465553284" lon="8.791970014572144">
1208        <ele>548.51953125</ele>
1209      </trkpt>
1210      <trkpt lat="47.189943194389343" lon="8.791900277137756">
1211        <ele>547.88671875</ele>
1212      </trkpt>
1213      <trkpt lat="47.189970016479492" lon="8.791830539703369">
1214        <ele>546.7265625</ele>
1215      </trkpt>
1216      <trkpt lat="47.190002202987671" lon="8.791755437850952">
1217        <ele>545.3984375</ele>
1218      </trkpt>
1219      <trkpt lat="47.190039753913879" lon="8.791680335998535">
1220        <ele>543.87890625</ele>
1221      </trkpt>
1222      <trkpt lat="47.190120220184326" lon="8.791535496711731">
1223        <ele>540.6484375</ele>
1224      </trkpt>
1225      <trkpt lat="47.190232872962952" lon="8.791294097900391">
1226        <ele>536.4296875</ele>
1227      </trkpt>
1228      <trkpt lat="47.190254330635071" lon="8.791224360466003">
1229        <ele>536.046875</ele>
1230      </trkpt>
1231      <trkpt lat="47.19027042388916" lon="8.791149258613586">
1232        <ele>535.765625</ele>
1233      </trkpt>
1234      <trkpt lat="47.19027578830719" lon="8.791015148162842">
1235        <ele>535.71875</ele>
1236      </trkpt>
1237      <trkpt lat="47.19027578830719" lon="8.790768384933472">
1238        <ele>535.55859375</ele>
1239      </trkpt>
1240      <trkpt lat="47.19026505947113" lon="8.790435791015625">
1241        <ele>535.359375</ele>
1242      </trkpt>
1243      <trkpt lat="47.190259695053101" lon="8.790162205696106">
1244        <ele>534.5234375</ele>
1245      </trkpt>
1246      <trkpt lat="47.190259695053101" lon="8.789920806884766">
1247        <ele>534.2578125</ele>
1248      </trkpt>
1249      <trkpt lat="47.190254330635071" lon="8.789674043655396">
1250        <ele>535.1328125</ele>
1251      </trkpt>
1252      <trkpt lat="47.190254330635071" lon="8.78955602645874">
1253        <ele>535.46875</ele>
1254      </trkpt>
1255      <trkpt lat="47.190254330635071" lon="8.789491653442383">
1256        <ele>535.04296875</ele>
1257      </trkpt>
1258      <trkpt lat="47.19027042388916" lon="8.789438009262085">
1259        <ele>534.04296875</ele>
1260      </trkpt>
1261      <trkpt lat="47.190307974815369" lon="8.789384365081787">
1262        <ele>532.234375</ele>
1263      </trkpt>
1264      <trkpt lat="47.190356254577637" lon="8.789357542991638">
1265        <ele>530.2109375</ele>
1266      </trkpt>
1267      <trkpt lat="47.190393805503845" lon="8.789357542991638">
1268        <ele>528.7890625</ele>
1269      </trkpt>
1270      <trkpt lat="47.190425992012024" lon="8.789373636245728">
1271        <ele>527.69140625</ele>
1272      </trkpt>
1273      <trkpt lat="47.190458178520203" lon="8.789411187171936">
1274        <ele>526.76171875</ele>
1275      </trkpt>
1276      <trkpt lat="47.190485000610352" lon="8.789459466934204">
1277        <ele>526.1171875</ele>
1278      </trkpt>
1279      <trkpt lat="47.190506458282471" lon="8.789529204368591">
1280        <ele>525.83984375</ele>
1281      </trkpt>
1282      <trkpt lat="47.19052255153656" lon="8.789609670639038">
1283        <ele>525.51171875</ele>
1284      </trkpt>
1285      <trkpt lat="47.19053328037262" lon="8.789727687835693">
1286        <ele>525.34375</ele>
1287      </trkpt>
1288      <trkpt lat="47.190544009208679" lon="8.789829611778259">
1289        <ele>525.18359375</ele>
1290      </trkpt>
1291      <trkpt lat="47.190586924552917" lon="8.790022730827332">
1292        <ele>524.3515625</ele>
1293      </trkpt>
1294      <trkpt lat="47.190635204315186" lon="8.790242671966553">
1295        <ele>524.41015625</ele>
1296      </trkpt>
1297      <trkpt lat="47.190672755241394" lon="8.790398240089417">
1298        <ele>524.47265625</ele>
1299      </trkpt>
1300      <trkpt lat="47.190726399421692" lon="8.790548443794251">
1301        <ele>524.02734375</ele>
1302      </trkpt>
1303      <trkpt lat="47.19078004360199" lon="8.790677189826965">
1304        <ele>523.09375</ele>
1305      </trkpt>
1306      <trkpt lat="47.190833687782288" lon="8.79082202911377">
1307        <ele>521.92578125</ele>
1308      </trkpt>
1309      <trkpt lat="47.190876603126526" lon="8.790961503982544">
1310        <ele>520.87109375</ele>
1311      </trkpt>
1312      <trkpt lat="47.190908789634705" lon="8.791095614433289">
1313        <ele>520.51953125</ele>
1314      </trkpt>
1315      <trkpt lat="47.190935611724854" lon="8.791192173957825">
1316        <ele>520.2578125</ele>
1317      </trkpt>
1318      <trkpt lat="47.190973162651062" lon="8.791267275810242">
1319        <ele>519.6640625</ele>
1320      </trkpt>
1321      <trkpt lat="47.19103217124939" lon="8.791337013244629">
1322        <ele>518.5703125</ele>
1323      </trkpt>
1324      <trkpt lat="47.191112637519836" lon="8.791401386260986">
1325        <ele>517.04296875</ele>
1326      </trkpt>
1327      <trkpt lat="47.19128429889679" lon="8.791524767875671">
1328        <ele>513.03125</ele>
1329      </trkpt>
1330      <trkpt lat="47.191407680511475" lon="8.791610598564148">
1331        <ele>510.19921875</ele>
1332      </trkpt>
1333      <trkpt lat="47.191488146781921" lon="8.791669607162476">
1334        <ele>508.5</ele>
1335      </trkpt>
1336      <trkpt lat="47.1915203332901" lon="8.791696429252625">
1337        <ele>507.8828125</ele>
1338      </trkpt>
1339      <trkpt lat="47.191579341888428" lon="8.791739344596863">
1340        <ele>506.71875</ele>
1341      </trkpt>
1342      <trkpt lat="47.191627621650696" lon="8.79179835319519">
1343        <ele>506.03125</ele>
1344      </trkpt>
1345      <trkpt lat="47.191659808158875" lon="8.791851997375488">
1346        <ele>505.5390625</ele>
1347      </trkpt>
1348      <trkpt lat="47.191686630249023" lon="8.791916370391846">
1349        <ele>504.96875</ele>
1350      </trkpt>
1351      <trkpt lat="47.191718816757202" lon="8.792018294334412">
1352        <ele>504.28125</ele>
1353      </trkpt>
1354      <trkpt lat="47.191751003265381" lon="8.792141675949097">
1355        <ele>503.6640625</ele>
1356      </trkpt>
1357      <trkpt lat="47.191799283027649" lon="8.79229724407196">
1358        <ele>502.578125</ele>
1359      </trkpt>
1360      <trkpt lat="47.191842198371887" lon="8.792458176612854">
1361        <ele>500.921875</ele>
1362      </trkpt>
1363      <trkpt lat="47.191869020462036" lon="8.79257082939148">
1364        <ele>499.85546875</ele>
1365      </trkpt>
1366      <trkpt lat="47.191879749298096" lon="8.792662024497986">
1367        <ele>499.40234375</ele>
1368      </trkpt>
1369      <trkpt lat="47.191890478134155" lon="8.792763948440552">
1370        <ele>498.96875</ele>
1371      </trkpt>
1372      <trkpt lat="47.191895842552185" lon="8.792887330055237">
1373        <ele>497.8828125</ele>
1374      </trkpt>
1375      <trkpt lat="47.191895842552185" lon="8.79306435585022">
1376        <ele>496.2265625</ele>
1377      </trkpt>
1378      <trkpt lat="47.191901206970215" lon="8.793182373046875">
1379        <ele>494.9609375</ele>
1380      </trkpt>
1381      <trkpt lat="47.191906571388245" lon="8.793257474899292">
1382        <ele>494.13671875</ele>
1383      </trkpt>
1384      <trkpt lat="47.191928029060364" lon="8.793343305587769">
1385        <ele>493.6015625</ele>
1386      </trkpt>
1387      <trkpt lat="47.191960215568542" lon="8.793472051620483">
1388        <ele>492.828125</ele>
1389      </trkpt>
1390      <trkpt lat="47.19199282117188" lon="8.793616723269224">
1391        <ele>492.1015625</ele>
1392      </trkpt>
1393      <trkpt lat="47.192008495330811" lon="8.793686628341675">
1394        <ele>491.76953125</ele>
1395      </trkpt>
1396      <trkpt lat="47.192040681838989" lon="8.793852925300598">
1397        <ele>490.83984375</ele>
1398      </trkpt>
1399      <trkpt lat="47.192062139511108" lon="8.793992400169373">
1400        <ele>490.23828125</ele>
1401      </trkpt>
1402      <trkpt lat="47.192072868347168" lon="8.7940514087677">
1403        <ele>489.96484375</ele>
1404      </trkpt>
1405      <trkpt lat="47.192083597183228" lon="8.794147968292236">
1406        <ele>489.703125</ele>
1407      </trkpt>
1408      <trkpt lat="47.192121148109436" lon="8.795000910758972">
1409        <ele>484.7109375</ele>
1410      </trkpt>
1411      <trkpt lat="47.192137241363525" lon="8.79530131816864">
1412        <ele>482.328125</ele>
1413      </trkpt>
1414      <trkpt lat="47.192137241363525" lon="8.795451521873474">
1415        <ele>481.04296875</ele>
1416      </trkpt>
1417      <trkpt lat="47.192137241363525" lon="8.795537352561951">
1418        <ele>480.3046875</ele>
1419      </trkpt>
1420      <trkpt lat="47.192126512527466" lon="8.795607089996338">
1421        <ele>479.70703125</ele>
1422      </trkpt>
1423      <trkpt lat="47.192110419273376" lon="8.795682191848755">
1424        <ele>478.984375</ele>
1425      </trkpt>
1426      <trkpt lat="47.192088961601257" lon="8.795746564865112">
1427        <ele>478.4609375</ele>
1428      </trkpt>
1429      <trkpt lat="47.192035317420959" lon="8.795832395553589">
1430        <ele>479.1015625</ele>
1431      </trkpt>
1432      <trkpt lat="47.191981673240662" lon="8.795896768569946">
1433        <ele>480.359375</ele>
1434      </trkpt>
1435      <trkpt lat="47.191949486732483" lon="8.795934319496155">
1436        <ele>481.19140625</ele>
1437      </trkpt>
1438      <trkpt lat="47.191906571388245" lon="8.795993328094482">
1439        <ele>482.2890625</ele>
1440      </trkpt>
1441      <trkpt lat="47.191869020462036" lon="8.79606306552887">
1442        <ele>483.28125</ele>
1443      </trkpt>
1444      <trkpt lat="47.191847562789917" lon="8.796138167381287">
1445        <ele>483.69921875</ele>
1446      </trkpt>
1447      <trkpt lat="47.191842198371887" lon="8.796213269233704">
1448        <ele>483.4609375</ele>
1449      </trkpt>
1450      <trkpt lat="47.191842198371887" lon="8.796283006668091">
1451        <ele>483.0390625</ele>
1452      </trkpt>
1453      <trkpt lat="47.191858291625977" lon="8.796374201774597">
1454        <ele>481.9140625</ele>
1455      </trkpt>
1456      <trkpt lat="47.191885113716125" lon="8.796454668045044">
1457        <ele>480.515625</ele>
1458      </trkpt>
1459      <trkpt lat="47.191917300224304" lon="8.796513676643372">
1460        <ele>479.16796875</ele>
1461      </trkpt>
1462      <trkpt lat="47.191987037658691" lon="8.796631693840027">
1463        <ele>476.74609375</ele>
1464      </trkpt>
1465      <trkpt lat="47.192067503929138" lon="8.796760439872742">
1466        <ele>474.3515625</ele>
1467      </trkpt>
1468      <trkpt lat="47.192131876945496" lon="8.796835541725159">
1469        <ele>473.28515625</ele>
1470      </trkpt>
1471      <trkpt lat="47.192190885543823" lon="8.796894550323486">
1472        <ele>472.39453125</ele>
1473      </trkpt>
1474      <trkpt lat="47.192255258560181" lon="8.796948194503784">
1475        <ele>471.3671875</ele>
1476      </trkpt>
1477      <trkpt lat="47.192346453666687" lon="8.797001838684082">
1478        <ele>470.0390625</ele>
1479      </trkpt>
1480      <trkpt lat="47.192426919937134" lon="8.79704475402832">
1481        <ele>468.76171875</ele>
1482      </trkpt>
1483      <trkpt lat="47.192507386207581" lon="8.797082304954529">
1484        <ele>467.3671875</ele>
1485      </trkpt>
1486      <trkpt lat="47.192555665969849" lon="8.797114491462708">
1487        <ele>466.60546875</ele>
1488      </trkpt>
1489      <trkpt lat="47.192727327346802" lon="8.797253966331482">
1490        <ele>464.65625</ele>
1491      </trkpt>
1492      <trkpt lat="47.192807793617249" lon="8.79730761051178">
1493        <ele>463.62109375</ele>
1494      </trkpt>
1495      <trkpt lat="47.192866047844291" lon="8.797338372096419">
1496        <ele>462.84375</ele>
1497      </trkpt>
1498      <trkpt lat="47.192865964025259" lon="8.797338204458356">
1499        <ele>462.84765625</ele>
1500      </trkpt>
1501    </trkseg>
1502  </trk>
1503
1504  <trk>
1505    <name>Trampelpfad durch Wald</name>
1506    <extensions>
1507      <gpxx:TrackExtension xmlns:gpxx="http://www.garmin.com/xmlschemas/GpxExtensions/v3">
1508        <gpxx:DisplayColor>Magenta</gpxx:DisplayColor>
1509      </gpxx:TrackExtension>
1510    </extensions>
1511    <trkseg>
1512      <trkpt lat="47.185614863410592" lon="8.796475538983941">
1513        <ele>647.81640625</ele>
1514      </trkpt>
1515      <trkpt lat="47.185668759047985" lon="8.796514933928847">
1516        <ele>646.87109375</ele>
1517      </trkpt>
1518      <trkpt lat="47.185717290267348" lon="8.796522812917829">
1519        <ele>646.1953125</ele>
1520      </trkpt>
1521      <trkpt lat="47.185757691040635" lon="8.796562207862735">
1522        <ele>645.5859375</ele>
1523      </trkpt>
1524      <trkpt lat="47.185803540050983" lon="8.796577882021666">
1525        <ele>644.8203125</ele>
1526      </trkpt>
1527      <trkpt lat="47.185914013534784" lon="8.796581821516156">
1528        <ele>642.9765625</ele>
1529      </trkpt>
1530      <trkpt lat="47.185962544754148" lon="8.796625155955553">
1531        <ele>641.796875</ele>
1532      </trkpt>
1533      <trkpt lat="47.186081148684025" lon="8.796644853428006">
1534        <ele>639.4296875</ele>
1535      </trkpt>
1536      <trkpt lat="47.186186257749796" lon="8.7967315223068">
1537        <ele>636.4921875</ele>
1538      </trkpt>
1539      <trkpt lat="47.186264377087355" lon="8.796790530905128">
1540        <ele>634.1328125</ele>
1541      </trkpt>
1542      <trkpt lat="47.186399158090353" lon="8.796892957761884">
1543        <ele>629.55859375</ele>
1544      </trkpt>
1545      <trkpt lat="47.186458418145776" lon="8.796928413212299">
1546        <ele>627.55078125</ele>
1547      </trkpt>
1548      <trkpt lat="47.186606610193849" lon="8.796955989673734">
1549        <ele>624.0234375</ele>
1550      </trkpt>
1551    </trkseg>
1552  </trk>
1553
1554  <trk>
1555    <name>über Wiese am Waldrand</name>
1556    <extensions>
1557      <gpxx:TrackExtension xmlns:gpxx="http://www.garmin.com/xmlschemas/GpxExtensions/v3">
1558        <gpxx:DisplayColor>Red</gpxx:DisplayColor>
1559      </gpxx:TrackExtension>
1560    </extensions>
1561    <trkseg>
1562      <trkpt lat="47.18490038998425" lon="8.796944171190262">
1563        <ele>663.90234375</ele>
1564      </trkpt>
1565      <trkpt lat="47.184951603412628" lon="8.796790530905128">
1566        <ele>662.74609375</ele>
1567      </trkpt>
1568      <trkpt lat="47.184956967830658" lon="8.796640913933516">
1569        <ele>662.1328125</ele>
1570      </trkpt>
1571      <trkpt lat="47.184981275349855" lon="8.796550389379263">
1572        <ele>661.39453125</ele>
1573      </trkpt>
1574      <trkpt lat="47.185110608115792" lon="8.796479478478432">
1575        <ele>658.98828125</ele>
1576      </trkpt>
1577      <trkpt lat="47.185218399390578" lon="8.796408567577601">
1578        <ele>657.47265625</ele>
1579      </trkpt>
1580      <trkpt lat="47.185361227020621" lon="8.796420386061072">
1581        <ele>654.22265625</ele>
1582      </trkpt>
1583      <trkpt lat="47.185536408796906" lon="8.796440083533526">
1584        <ele>650.0703125</ele>
1585      </trkpt>
1586      <trkpt lat="47.185609163716435" lon="8.796475538983941">
1587        <ele>647.890625</ele>
1588      </trkpt>
1589    </trkseg>
1590  </trk>
1591
1592</gpx>
Note: See TracBrowser for help on using the repository browser.